[[{"header":{"parameterUnit":"m.s-1","parameterCategory":1,"la1":30.2991,"la2":30.254,"lo1":-89.0895,"lo2":-89.0444,"dy":0.0017,"dx":0.0017,"nx":28,"ny":28,"refTime":"2024-04-18T21:00:00:Z","depth":0,"parameterNumber":2,"parameterNumberName":"U-component_of_WINDS"},"data":[0,0,0,0,0,0,0,0,0,0,0,0,0,0,0,0,0,0,0,0,0,0,0,0,0,0,0,0,0,0,0,0,0,0,0,0,0,0,0,0,0,0,0,0,0,0,0,0,0,0,0,0,0,0,0,0,0,0,-1.2982,-1.2981,0,-1.2912,-1.2911,-1.291,-1.2851,-1.285,-1.285,-1.2849,-1.2773,-1.2772,-1.2771,0,0,0,0,0,0,0,0,0,0,0,0,0,-1.3061,-1.306,-1.2982,-1.2981,-1.298,-1.2912,-1.2911,-1.291,-1.2851,-1.285,-1.285,-1.2849,-1.2774,-1.2772,-1.2771,0,0,0,0,0,0,0,0,0,0,0,0,0,-1.3012,-1.306,-1.2982,-1.2943,-1.2938,-1.2912,-1.2911,-1.291,-1.2851,-1.285,-1.2849,-1.2848,-1.2775,-1.2772,-1.277,-1.2776,0,0,-1.2764,-1.2763,0,0,0,0,0,0,0,0,-1.3015,-1.3009,-1.2949,-1.2945,-1.2941,-1.2889,-1.2911,-1.2865,-1.2852,-1.2884,-1.2849,-1.2848,-1.2813,-1.2807,-1.2796,-1.2773,-1.2769,-1.2764,-1.2762,-1.2761,-1.2761,0,0,0,0,0,0,0,-1.3019,-1.3012,-1.2954,-1.2948,-1.2943,-1.2927,-1.2919,-1.2902,-1.2854,-1.2881,-1.2877,-1.287,-1.281,-1.2798,-1.2794,-1.2768,-1.2764,-1.2762,-1.276,-1.276,-1.2746,-1.2746,0,0,0,0,0,0,-1.3029,-1.3015,-1.2956,-1.2952,-1.2976,-1.2927,-1.2918,-1.2907,-1.2854,-1.2846,-1.287,-1.2867,-1.2802,-1.2796,-1.2791,-1.2794,-1.2761,-1.2759,-1.2758,-1.2745,-1.2746,-1.2747,0,0,0,0,0,0,-1.3031,-1.3024,-1.2959,-1.2982,-1.2973,-1.2926,-1.2914,-1.2906,-1.2894,-1.2846,-1.2837,-1.2868,-1.2801,-1.2794,-1.278,-1.279,-1.2758,-1.2757,-1.2744,-1.2745,-1.2746,-1.28,0,0,0,0,0,0,-1.3033,-1.3025,-1.3028,-1.2983,-1.2972,-1.2951,-1.2915,-1.2905,-1.2891,-1.2886,-1.2841,-1.2833,-1.28,-1.2784,-1.2778,-1.2787,-1.2755,-1.2742,-1.2744,-1.2746,-1.2797,-1.2803,-1.2809,0,0,0,0,0,-1.3036,-1.3045,-1.3028,-1.3021,-1.2974,-1.2952,-1.2945,-1.2909,-1.2892,-1.2894,-1.2863,-1.2834,-1.2791,-1.2783,-1.2776,-1.2784,-1.2742,-1.2744,-1.2746,-1.2795,-1.2802,-1.2808,0,0,0,0,0,0,-1.309,-1.3038,-1.3019,-1.3014,-1.2988,-1.2942,-1.2943,-1.2917,-1.2895,-1.2891,-1.2845,-1.2835,-1.2827,-1.2804,-1.2797,-1.2787,-1.2762,-1.2763,-1.2802,-1.2809,-1.2814,-1.2819,-1.2753,0,0,0,0,0,-1.3102,-1.3089,-1.3044,-1.3044,-1.3032,-1.299,-1.2978,-1.2953,-1.2923,-1.2911,-1.288,-1.2851,-1.2831,-1.2819,-1.2797,-1.2794,-1.2783,-1.2796,-1.2802,-1.2807,-1.2808,-1.2804,-1.2809,-1.2753,-1.2753,-1.2753,0,0,-1.3125,-1.3095,-1.309,-1.3054,-1.3031,-1.3017,-1.2981,-1.2968,-1.2957,-1.2909,-1.2895,-1.2871,-1.2836,-1.2828,-1.2822,-1.2808,-1.2821,-1.2809,-1.2814,-1.2812,-1.2806,-1.2811,-1.2816,-1.2755,-1.2755,-1.2754,0,0,-1.3161,-1.3137,-1.3134,-1.3112,-1.3078,-1.305,-1.305,-1.3008,-1.299,-1.2976,-1.2939,-1.2925,-1.2891,-1.2868,-1.2852,-1.2879,-1.2851,-1.2873,-1.2902,-1.2898,-1.2903,-1.2906,-1.2915,-1.2919,-1.2874,-1.2875,-1.2875,0,-1.3194,-1.3173,-1.3136,-1.3126,-1.311,-1.3068,-1.3064,-1.3044,-1.3004,-1.2994,-1.2979,-1.2936,-1.291,-1.2895,-1.2902,-1.2891,-1.2888,-1.2878,-1.2905,-1.2909,-1.2911,-1.2919,-1.2923,-1.2877,-1.2877,-1.2877,-1.2877,0,-1.3215,-1.3202,-1.3203,-1.3167,-1.3152,-1.3145,-1.3105,-1.3095,-1.307,-1.3044,-1.3029,-1.2996,-1.2967,-1.2962,-1.2937,-1.2943,-1.2936,-1.2914,-1.2888,-1.292,-1.2927,-1.293,-1.2882,-1.2881,-1.288,-1.2879,0,0,-1.3282,-1.3226,-1.3227,-1.3211,-1.317,-1.3158,-1.3149,-1.3122,-1.3113,-1.3087,-1.3078,-1.305,-1.303,-1.3012,-1.2984,-1.2982,-1.3005,-1.296,-1.2958,-1.2969,-1.3008,-1.3025,-1.3029,-1.2986,-1.2987,-1.2987,-1.3011,0,-1.331,-1.3293,-1.3259,-1.3251,-1.3238,-1.3197,-1.3189,-1.3162,-1.3137,-1.3121,-1.3093,-1.3074,-1.3049,-1.3038,-1.3034,-1.3003,-1.3012,-1.3001,-1.2975,-1.2975,-1.2985,-1.3032,-1.3049,-1.3074,-1.3014,-1.3014,-1.3014,0,-1.3341,-1.3319,-1.3311,-1.3271,-1.3264,-1.3257,-1.323,-1.3216,-1.3184,-1.3166,-1.3147,-1.3117,-1.3103,-1.3081,-1.3061,-1.3054,-1.3042,-1.3025,-1.3025,-1.3021,-1.2996,-1.3028,-1.308,-1.3084,-1.3018,-1.3018,-1.3018,0,-1.339,-1.3358,-1.3349,-1.3336,-1.3289,-1.3286,-1.3266,-1.3234,-1.322,-1.3196,-1.3186,-1.316,-1.3146,-1.3126,-1.309,-1.3077,-1.3074,-1.3048,-1.3057,-1.3058,-1.3058,-1.3058,-1.3108,-1.3052,-1.3052,-1.3052,-1.3051,0,-1.3425,-1.3421,-1.337,-1.3364,-1.3359,-1.3319,-1.3314,-1.3291,-1.3263,-1.3251,-1.3214,-1.3203,-1.3156,-1.314,-1.3111,-1.3099,-1.3093,-1.3077,-1.3069,-1.308,-1.3082,-1.307,-1.3067,-1.3052,-1.3052,-1.3052,-1.3052,0,-1.3478,-1.3444,-1.3431,-1.3389,-1.3378,-1.3376,-1.3339,-1.3331,-1.3304,-1.329,-1.3284,-1.3241,-1.322,-1.3182,-1.3149,-1.313,-1.3123,-1.311,-1.3134,-1.3129,-1.314,-1.314,-1.3184,-1.3187,-1.313,-1.3131,-1.3131,0,-1.3502,-1.3498,-1.3456,-1.3446,-1.3428,-1.3413,-1.3399,-1.336,-1.3346,-1.3311,-1.3307,-1.3283,-1.3262,-1.3229,-1.3195,-1.3169,-1.3155,-1.3173,-1.3151,-1.3162,-1.3154,-1.3155,-1.3154,-1.3177,-1.3178,-1.3179,-1.3179,0,-1.3548,-1.3532,-1.3514,-1.349,-1.3474,-1.3453,-1.343,-1.3424,-1.3379,-1.3366,-1.3344,-1.3328,-1.3295,-1.3272,-1.3242,-1.322,-1.3192,-1.3186,-1.3187,-1.3197,-1.3211,-1.3203,-1.3147,-1.3185,-1.3185,-1.3184,-1.3184,-1.3184,-1.3587,-1.3582,-1.3551,-1.3532,-1.3511,-1.349,-1.3481,-1.3454,-1.3435,-1.3407,-1.3385,-1.3365,-1.3333,-1.329,-1.327,-1.3253,-1.324,-1.3241,-1.3241,-1.3242,-1.3245,-1.3215,-1.3247,-1.3247,-1.3247,-1.3246,-1.3246,0,-1.363,-1.3609,-1.3592,-1.3562,-1.3546,-1.3523,-1.3496,-1.3485,-1.3468,-1.3442,-1.3422,-1.3397,-1.3374,-1.3338,-1.3312,-1.3305,-1.3291,-1.3299,-1.3298,-1.3294,-1.3259,-1.3261,-1.331,-1.331,-1.331,-1.331,-1.331,-1.331,-1.3651,-1.3641,-1.3621,-1.36,-1.3578,-1.3559,-1.3546,-1.3526,-1.3505,-1.3479,-1.346,-1.3437,-1.3407,-1.3378,-1.3355,-1.3345,-1.3337,-1.3349,-1.3334,-1.3302,-1.3296,-1.3291,-1.3292,-1.3347,-1.3347,-1.337,-1.3371,-1.3371]},{"header":{"parameterUnit":"m.s-1","parameterCategory":1,"la1":30.2991,"la2":30.254,"lo1":-89.0895,"lo2":-89.0444,"dy":0.0017,"dx":0.0017,"nx":28,"ny":28,"refTime":"2024-04-18T21:00:00:Z","depth":0,"parameterNumber":3,"parameterNumberName":"V-component_of_WINDS"},"data":[0,0,0,0,0,0,0,0,0,0,0,0,0,0,0,0,0,0,0,0,0,0,0,0,0,0,0,0,0,0,0,0,0,0,0,0,0,0,0,0,0,0,0,0,0,0,0,0,0,0,0,0,0,0,0,0,0,0,3.0008,3.0008,0,3.0032,3.0032,3.0033,3.0014,3.0013,3.0013,3.0012,3.0034,3.0035,3.0036,0,0,0,0,0,0,0,0,0,0,0,0,0,2.9943,2.9944,3.0008,3.0008,3.0009,3.0032,3.0032,3.0033,3.0014,3.0013,3.0012,3.0011,3.0033,3.0035,3.0036,0,0,0,0,0,0,0,0,0,0,0,0,0,2.997,2.9945,3.0008,3.0002,3.0002,3.0032,3.0032,3.0033,3.0014,3.0013,3.0012,3.0011,3.0033,3.0034,3.0036,3.0072,0,0,3.0042,3.0043,0,0,0,0,0,0,0,0,2.9968,2.9972,3.0003,3.0003,3.0003,3.0019,3.0017,3.0046,3.0015,3.001,3.0012,3.001,3.0029,3.0032,3.0039,3.0073,3.0074,3.0043,3.0044,3.0045,3.0045,0,0,0,0,0,0,0,2.9966,2.9971,3.0017,3.0003,3.0003,2.9998,3.0,3.0023,3.0026,3.001,3.0009,3.0012,3.0029,3.0037,3.0039,3.0075,3.0043,3.0044,3.0046,3.0046,3.0141,3.0142,0,0,0,0,0,0,2.9965,2.9969,3.0017,3.0018,2.9982,3.0,3.0003,3.0015,3.0026,3.0026,3.0013,3.0011,3.0034,3.0037,3.004,3.0083,3.0045,3.0047,3.0048,3.0139,3.0141,3.0142,0,0,0,0,0,0,2.9964,2.997,3.0016,2.9994,2.9999,3.0002,3.0016,3.0016,3.0024,3.0028,3.0028,3.0021,3.0033,3.0037,3.0065,3.0084,3.0047,3.0049,3.0138,3.014,3.0142,3.017,0,0,0,0,0,0,2.9962,2.9969,2.9984,2.9994,3.0,3.0041,3.0017,3.0017,3.0027,3.0025,3.0035,3.0035,3.0033,3.0062,3.0067,3.0086,3.0051,3.0136,3.0139,3.0141,3.0167,3.0173,3.0177,0,0,0,0,0,2.996,2.999,2.9985,2.999,3.0018,3.0042,3.0046,3.0043,3.0029,3.0043,3.0046,3.0035,3.0081,3.0065,3.007,3.009,3.0135,3.0138,3.0141,3.0165,3.0172,3.0177,0,0,0,0,0,0,2.9981,2.9991,2.9985,3.002,3.003,3.0039,3.0057,3.005,3.0064,3.0061,3.0055,3.0058,3.0087,3.0091,3.0073,3.0125,3.0105,3.011,3.0122,3.0128,3.0133,3.0132,3.0052,0,0,0,0,0,2.9989,3.0009,3.0017,3.0046,3.0052,3.0054,3.0064,3.0061,3.0071,3.0075,3.008,3.009,3.0106,3.0117,3.0133,3.0167,3.0169,3.0184,3.0189,3.0193,3.0196,3.0216,3.0222,3.0152,3.0152,3.0152,0,0,3.0007,3.0015,3.0028,3.005,3.0058,3.0078,3.0057,3.0079,3.0093,3.0078,3.0105,3.0109,3.012,3.0151,3.0165,3.0155,3.0216,3.0196,3.02,3.0201,3.0219,3.0226,3.0232,3.0154,3.0154,3.0153,0,0,3.005,3.0058,3.0084,3.0093,3.0106,3.0107,3.0113,3.0123,3.0125,3.0153,3.0142,3.0158,3.0187,3.0195,3.0203,3.0249,3.024,3.0254,3.028,3.0299,3.0305,3.031,3.0327,3.0333,3.0258,3.0258,3.0258,0,3.007,3.0101,3.0098,3.0121,3.0131,3.0119,3.0145,3.0153,3.017,3.0177,3.0166,3.0202,3.0208,3.0242,3.0254,3.026,3.0267,3.0254,3.0304,3.0309,3.0314,3.033,3.0336,3.026,3.026,3.0259,3.0259,0,3.0125,3.0147,3.0166,3.0184,3.0196,3.022,3.022,3.0233,3.0229,3.0231,3.0259,3.0266,3.0283,3.029,3.0286,3.0324,3.0317,3.0305,3.0285,3.0322,3.0337,3.0344,3.0262,3.0262,3.0261,3.0261,0,0,3.0182,3.0199,3.0206,3.0214,3.0228,3.0244,3.0267,3.0285,3.0296,3.0308,3.0327,3.0352,3.0341,3.035,3.0346,3.0363,3.04,3.0349,3.0349,3.0359,3.0443,3.0452,3.046,3.0394,3.0395,3.0396,3.0442,0,3.0226,3.0269,3.0267,3.0306,3.0326,3.0315,3.0336,3.0346,3.0348,3.0364,3.0366,3.0384,3.0368,3.0374,3.039,3.0392,3.0417,3.0389,3.0412,3.0413,3.041,3.0467,3.0477,3.0521,3.0448,3.0449,3.045,0,3.0284,3.0299,3.0341,3.0352,3.036,3.0379,3.0395,3.0411,3.0422,3.0423,3.0433,3.0427,3.045,3.0429,3.046,3.0441,3.045,3.0453,3.0455,3.0457,3.0434,3.0472,3.0534,3.0541,3.0459,3.0458,3.0457,0,3.0322,3.0353,3.0382,3.0389,3.0403,3.0416,3.0422,3.0432,3.0443,3.0457,3.0464,3.048,3.0489,3.0501,3.0499,3.0484,3.0531,3.051,3.0532,3.0533,3.0543,3.0543,3.0609,3.0548,3.0548,3.0548,3.0548,0,3.0372,3.0398,3.04,3.0418,3.0447,3.0444,3.0472,3.0476,3.0485,3.0504,3.0494,3.0511,3.0507,3.0524,3.0522,3.0549,3.0553,3.0554,3.0553,3.0555,3.0555,3.0561,3.0558,3.055,3.0549,3.0549,3.0549,0,3.042,3.0422,3.0453,3.0464,3.0467,3.0488,3.0497,3.0513,3.0515,3.0538,3.0543,3.0546,3.0565,3.0564,3.0585,3.0584,3.0618,3.0613,3.0614,3.0614,3.0636,3.0635,3.0709,3.0719,3.0651,3.0652,3.0653,0,3.0452,3.0472,3.0486,3.0498,3.0505,3.0525,3.0536,3.0534,3.0546,3.0561,3.0575,3.0594,3.0609,3.064,3.0643,3.0659,3.0655,3.068,3.0658,3.0659,3.0657,3.0656,3.0658,3.0685,3.0686,3.0686,3.0687,0,3.051,3.051,3.0528,3.0546,3.056,3.0574,3.0587,3.0597,3.0596,3.061,3.063,3.0642,3.0664,3.0683,3.0699,3.0704,3.0695,3.0694,3.07,3.0703,3.0703,3.0704,3.0627,3.0692,3.0692,3.0691,3.0691,3.0691,3.0551,3.0569,3.0582,3.0602,3.0611,3.0623,3.064,3.0644,3.0662,3.0681,3.0678,3.07,3.071,3.0731,3.0738,3.0755,3.0746,3.0754,3.0757,3.0759,3.0762,3.07,3.0757,3.0757,3.0757,3.0757,3.0757,0,3.0609,3.0617,3.0635,3.0654,3.067,3.0661,3.0675,3.0689,3.0709,3.072,3.0735,3.0758,3.0776,3.0781,3.0798,3.0811,3.0807,3.0816,3.0815,3.0816,3.0769,3.0762,3.0818,3.0818,3.0818,3.0818,3.0818,3.0818,3.0641,3.0671,3.0673,3.0707,3.0714,3.0737,3.0746,3.0757,3.0765,3.0792,3.0808,3.0811,3.0819,3.0837,3.0853,3.0854,3.0861,3.0871,3.087,3.0826,3.082,3.0814,3.0807,3.0872,3.0872,3.0916,3.0916,3.0917]}]]